This is the latest recevied weather packets stored in our database for station/object KM4CNW. If no packets are shown the sender has not sent any weather packets the latest 10 day(s).
| Time | Temp. | Humidity | Pressure | Rain* | Wind** | Luminosity | Snow |
|---|---|---|---|---|---|---|---|
| 1778000370 | 25.56° C | 36% | 1010.2 hPa | 0 mm | - | 707 W/m² | - |
| 1778000066 | 25.56° C | 34% | 1010.3 hPa | 0 mm | - | 613 W/m² | - |
| 1777999762 | 25° C | 36% | 1010.5 hPa | 0 mm | - | 646 W/m² | - |
| 1777999459 | 25° C | 36% | 1010.3 hPa | 0 mm | - | 684 W/m² | - |
| 1777999157 | 25° C | 37% | 1010.5 hPa | 0 mm | - | 707 W/m² | - |
| 1777998856 | 25° C | 37% | 1010.8 hPa | 0 mm | - | 723 W/m² | - |
| 1777998554 | 25° C | 37% | 1010.8 hPa | 0 mm | - | 694 W/m² | - |
| 1777998249 | 25° C | 38% | 1010.7 hPa | 0 mm | - | 685 W/m² | - |
| 1777997947 | 25° C | 38% | 1010.7 hPa | 0 mm | - | 739 W/m² | - |
| 1777997643 | 25.56° C | 37% | 1010.6 hPa | 0 mm | - | 736 W/m² | - |
| 1777997341 | 25° C | 39% | 1010.6 hPa | 0 mm | - | 752 W/m² | - |
| 1777997039 | 24.44° C | 40% | 1010.7 hPa | 0 mm | - | 761 W/m² | - |
| 1777996735 | 25° C | 41% | 1010.7 hPa | 0 mm | - | 784 W/m² | - |
| 1777996431 | 25° C | 40% | 1010.9 hPa | 0 mm | - | 775 W/m² | - |
| 1777996128 | 24.44° C | 42% | 1010.8 hPa | 0 mm | - | 788 W/m² | - |
| 1777995824 | 24.44° C | 42% | 1010.8 hPa | 0 mm | - | 797 W/m² | - |
| 1777995521 | 23.89° C | 43% | 1010.9 hPa | 0 mm | - | 783 W/m² | - |
| 1777995217 | 24.44° C | 43% | 1010.9 hPa | 0 mm | - | 793 W/m² | - |
| 1777994915 | 24.44° C | 42% | 1010.8 hPa | 0 mm | - | 788 W/m² | - |
| 1777994612 | 23.89° C | 44% | 1010.8 hPa | 0 mm | - | 777 W/m² | - |
| 1777994312 | 23.89° C | 43% | 1011.1 hPa | 0 mm | - | 765 W/m² | - |
| 1777994009 | 23.89° C | 47% | 1010.9 hPa | 0 mm | - | 751 W/m² | - |
| 1777993705 | 23.33° C | 46% | 1011.1 hPa | 0 mm | - | 735 W/m² | - |
| 1777993403 | 22.78° C | 49% | 1011 hPa | 0 mm | - | 705 W/m² | - |
| 1777993097 | 22.78° C | 48% | 1011 hPa | 0 mm | - | 669 W/m² | - |
* Rain latest hour (hover to see other rain measurements)
** Current wind speed in m/s (hover to see current wind gust speed)